Effective Sunday, March 17, 2024, the National Weather Service National Data Buoy Center will discontinue its Dial-A-Buoy Interactive Voice Response system. For more information, see Service Change Notice 24-06 (PDF).

Station TCNW1 - 9446484 - Tacoma, WA Image indicating link to RSS feed of recent meteorological observations for station TCNW1


Conditions at TCNW1 as of
(11:30 am PST)
1930 GMT on 03/03/2024:
     

Click on the graph icon in the table below to see a time series plot of the last five days of that observation.

5-day plot - Atmospheric Pressure Atmospheric Pressure (PRES):29.73 in
5-day plot - Water Temperature Water Temperature (WTMP): 48.7 °F
NOS Water Level Observation Network Water Level
Previous observations
TIME
(PST)
5-day plot - Wind Direction
WDIR
 
5-day plot - Wind Speed
WSPD
kts
5-day plot - Wind Gust
GST
kts
5-day plot - Wave Height
WVHT
ft
5-day plot - Dominant Wave Period
DPD
sec
5-day plot - Average Wave Period
APD
sec
5-day plot - Mean Wave Direction
MWD
 
5-day plot - Atmospheric Pressure
PRES
in
5-day plot - Pressure Tendency
PTDY
in
5-day plot - Air Temperature
ATMP
°F
5-day plot - Water Temperature
WTMP
°F
5-day plot - Dew Point
DEWP
°F
5-day plot - Salinity
SAL
psu
5-day plot - Visibility
VIS
nmi
5-day plot - Tide (above MLLW)
TIDE
ft
2024-03-03 11:24 am-------29.72-- 48.7----
2024-03-03 11:18 am-------29.72-------
2024-03-03 11:12 am-------29.72-------
2024-03-03 11:06 am-------29.72-------
2024-03-03 11:00 am-------29.72+0.05- 48.7----
2024-03-03 10:54 am-------29.72-- 48.7----
2024-03-03 10:48 am-------29.72-- 48.7----
2024-03-03 10:42 am-------29.72-- 48.7----
2024-03-03 10:36 am-------29.72-- 48.7----
2024-03-03 10:30 am-------29.72-- 48.7----
2024-03-03 10:24 am-------29.72-- 48.7----
2024-03-03 10:18 am-------29.72-- 48.7----
2024-03-03 10:12 am-------29.72-- 48.7----
2024-03-03 10:06 am-------29.72-- 48.7----
2024-03-03 10:00 am-------29.72+0.06- 48.7----
2024-03-03 09:54 am-------29.72-- 48.7----
2024-03-03 09:48 am-------29.72-- 48.7----
2024-03-03 09:42 am-------29.72-- 48.7----
2024-03-03 09:36 am-------29.71-- 48.7----
2024-03-03 09:30 am-------29.71-- 48.7----
2024-03-03 09:24 am-------29.71-- 48.7----
2024-03-03 09:18 am-------29.70-- 48.7----
2024-03-03 09:12 am-------29.70-- 48.7----
2024-03-03 09:06 am-------29.70-- 48.7----
2024-03-03 09:00 am-------29.70-- 48.7----
2024-03-03 08:54 am-------29.70-- 48.7----
2024-03-03 08:48 am-------29.70-- 48.7----
2024-03-03 08:42 am-------29.70-- 48.7----
2024-03-03 08:36 am-------29.69-- 48.7----
2024-03-03 08:30 am-------29.69-- 48.7----
2024-03-03 08:24 am-------29.68-- 48.7----
2024-03-03 08:18 am-------29.68-- 48.7----
2024-03-03 08:12 am-------29.68-- 48.7----
2024-03-03 08:06 am-------29.67-- 48.7----
2024-03-03 08:00 am-------29.67+0.04- 48.7----
2024-03-03 07:54 am-------29.67-- 48.7----
2024-03-03 07:48 am-------29.67-- 48.7----
2024-03-03 07:42 am-------29.67-- 48.7----
2024-03-03 07:36 am-------29.67-- 48.7----
2024-03-03 07:30 am-------29.67-- 48.7----
2024-03-03 07:24 am-------29.66-- 48.7----
2024-03-03 07:18 am-------29.66-- 48.7----
2024-03-03 07:12 am-------29.66-- 48.7----
2024-03-03 07:06 am-------29.66-- 48.7----
2024-03-03 07:00 am-------29.66+0.04- 48.7----
2024-03-03 06:54 am-------29.66-- 48.7----
2024-03-03 06:48 am-------29.66-- 48.7----
2024-03-03 06:42 am-------29.66-- 48.7----
2024-03-03 06:36 am-------29.66-- 48.7----
2024-03-03 06:30 am-------29.66-------
2024-03-03 06:24 am-------29.66-------
2024-03-03 06:18 am-------29.66-- 48.7----
2024-03-03 06:12 am-------29.66-- 48.7----
2024-03-03 06:06 am-------29.65-- 48.7----
2024-03-03 06:00 am---------- 48.7----
2024-03-03 05:54 am---------- 48.7----
2024-03-03 05:48 am-------29.65-- 48.7----
2024-03-03 05:42 am-------29.64-- 48.7----
2024-03-03 05:36 am-------29.64-- 48.7----
2024-03-03 05:30 am-------29.64-- 48.7----
2024-03-03 05:24 am-------29.64-- 48.7----
2024-03-03 05:18 am-------29.64-- 48.6----
2024-03-03 05:12 am-------29.64-- 48.6----
2024-03-03 05:06 am-------29.64-- 48.6----
2024-03-03 05:00 am-------29.64+0.02------
2024-03-03 04:54 am-------29.63-------
2024-03-03 04:48 am-------29.63-- 48.6----
2024-03-03 04:42 am-------29.63-- 48.6----
2024-03-03 04:36 am-------29.63-- 48.6----
2024-03-03 04:30 am---------- 48.6----
2024-03-03 04:24 am---------- 48.6----
2024-03-03 04:18 am-------29.62-- 48.6----
2024-03-03 04:12 am-------29.62-- 48.6----
2024-03-03 04:06 am-------29.62-- 48.6----
2024-03-03 04:00 am-------29.62+0.00- 48.6----
2024-03-03 03:54 am-------29.62-- 48.6----
2024-03-03 03:48 am-------29.62-- 48.6----
2024-03-03 03:42 am-------29.62-- 48.6----
2024-03-03 03:36 am-------29.62-- 48.6----
2024-03-03 03:30 am-------29.62-- 48.6----
2024-03-03 03:24 am-------29.62-- 48.6----
2024-03-03 03:18 am-------29.62-- 48.6----
2024-03-03 03:12 am-------29.62-- 48.6----
2024-03-03 03:06 am-------29.62-- 48.6----
2024-03-03 03:00 am-------29.62+0.01- 48.6----
2024-03-03 02:54 am-------29.62-- 48.6----
2024-03-03 02:48 am-------29.62-- 48.6----
2024-03-03 02:42 am-------29.62-- 48.6----
2024-03-03 02:36 am-------29.62-- 48.6----
2024-03-03 02:30 am-------29.62-- 48.6----
2024-03-03 02:24 am-------29.62-- 48.6----
2024-03-03 02:18 am-------29.62-- 48.6----
2024-03-03 02:12 am-------29.62-- 48.6----
2024-03-03 02:06 am-------29.62-- 48.6----
2024-03-03 02:00 am-------29.62+0.02- 48.6----
2024-03-03 01:54 am-------29.62-- 48.6----
2024-03-03 01:48 am-------29.62-- 48.6----
2024-03-03 01:42 am-------29.62-- 48.6----
2024-03-03 01:36 am-------29.62-- 48.6----
2024-03-03 01:30 am-------29.62-- 48.6----
2024-03-03 01:24 am-------29.62-- 48.6----
2024-03-03 01:18 am-------29.62-- 48.6----
2024-03-03 01:12 am-------29.62-- 48.6----
2024-03-03 01:06 am-------29.62-- 48.6----
2024-03-03 01:00 am-------29.62+0.02- 48.6----
2024-03-03 12:54 am-------29.62-- 48.6----
2024-03-03 12:48 am-------29.62-- 48.6----
2024-03-03 12:42 am-------29.62-- 48.6----
2024-03-03 12:36 am-------29.62-- 48.6----
2024-03-03 12:30 am-------29.61-- 48.6----
2024-03-03 12:24 am-------29.61-- 48.6----
2024-03-03 12:18 am-------29.61-- 48.6----
2024-03-03 12:12 am-------29.61-- 48.6----
2024-03-03 12:06 am-------29.61-- 48.6----
2024-03-03 12:00 am-------29.61+0.01- 48.6----
2024-03-02 11:54 pm-------29.61-- 48.6----
2024-03-02 11:48 pm-------29.61-- 48.6----
2024-03-02 11:42 pm-------29.61-- 48.6----
2024-03-02 11:36 pm-------29.60-- 48.6----
2024-03-02 11:30 pm-------29.60-- 48.6----
2024-03-02 11:24 pm-------29.60-- 48.6----
2024-03-02 11:18 pm-------29.60-- 48.6----
2024-03-02 11:12 pm-------29.60-- 48.6----
2024-03-02 11:06 pm-------29.60-- 48.4----
2024-03-02 11:00 pm-------29.59+0.00- 48.4----
2024-03-02 10:54 pm-------29.60-- 48.4----
2024-03-02 10:48 pm-------29.60-- 48.4----
2024-03-02 10:42 pm-------29.59-- 48.4----
2024-03-02 10:36 pm-------29.59-- 48.4----
2024-03-02 10:30 pm-------29.60-- 48.4----
2024-03-02 10:24 pm-------29.60-- 48.4----
2024-03-02 10:18 pm-------29.60-- 48.4----
2024-03-02 10:12 pm-------29.60-- 48.4----
2024-03-02 10:06 pm-------29.60-- 48.4----
2024-03-02 10:00 pm-------29.60+0.00- 48.4----
2024-03-02 09:54 pm-------29.60-- 48.4----
2024-03-02 09:48 pm-------29.59-- 48.4----
2024-03-02 09:42 pm-------29.59-- 48.4----
2024-03-02 09:36 pm-------29.59-- 48.4----
2024-03-02 09:30 pm-------29.60-- 48.4----
2024-03-02 09:24 pm-------29.59-- 48.4----
2024-03-02 09:18 pm-------29.59-- 48.4----
2024-03-02 09:12 pm-------29.59-- 48.4----
2024-03-02 09:06 pm-------29.59-- 48.4----
2024-03-02 09:00 pm-------29.59+0.02- 48.4----
2024-03-02 08:54 pm-------29.59-- 48.4----
2024-03-02 08:48 pm-------29.59-- 48.4----
2024-03-02 08:42 pm-------29.59-- 48.4----
2024-03-02 08:36 pm-------29.59-- 48.4----
2024-03-02 08:30 pm-------29.59-- 48.4----
2024-03-02 08:24 pm-------29.59-- 48.4----
2024-03-02 08:18 pm-------29.59-- 48.4----
2024-03-02 08:12 pm-------29.59-- 48.4----
2024-03-02 08:06 pm-------29.60-- 48.4----
2024-03-02 08:00 pm-------29.60+0.04- 48.4----
2024-03-02 07:54 pm-------29.60-- 48.4----
2024-03-02 07:48 pm-------29.60-- 48.4----
2024-03-02 07:42 pm-------29.60-- 48.6----
2024-03-02 07:36 pm-------29.60-- 48.6----
2024-03-02 07:30 pm-------29.60-- 48.4----
2024-03-02 07:24 pm-------29.60-- 48.4----
2024-03-02 07:18 pm-------29.60-- 48.4----
2024-03-02 07:12 pm-------29.60-- 48.4----
2024-03-02 07:06 pm-------29.60-- 48.4----
2024-03-02 07:00 pm-------29.60+0.06- 48.4----
2024-03-02 06:54 pm-------29.59-- 48.2----
2024-03-02 06:48 pm-------29.59-- 48.2----
2024-03-02 06:42 pm-------29.59-- 48.2----
2024-03-02 06:36 pm-------29.59-- 48.2----
2024-03-02 06:30 pm-------29.59-- 48.2----
2024-03-02 06:24 pm-------29.59-- 48.0----
2024-03-02 06:18 pm-------29.58-------
2024-03-02 06:12 pm-------29.58-- 48.0----
2024-03-02 06:06 pm-------29.57-- 48.0----
2024-03-02 06:00 pm-------29.57+0.03- 48.0----
2024-03-02 05:54 pm-------29.57-- 48.0----
2024-03-02 05:48 pm-------29.57-------
2024-03-02 05:42 pm-------29.57-- 47.8----
2024-03-02 05:36 pm-------29.57-- 47.8----
2024-03-02 05:30 pm-------29.57-- 47.8----
2024-03-02 05:24 pm-------29.57-- 47.8----
2024-03-02 05:18 pm-------29.56-- 47.8----
2024-03-02 05:12 pm-------29.56-- 47.8----
2024-03-02 05:06 pm-------29.56-- 47.8----
2024-03-02 05:00 pm-------29.55+0.01- 47.8----
2024-03-02 04:54 pm-------29.55-- 47.8----
2024-03-02 04:48 pm-------29.55-- 47.8----
2024-03-02 04:42 pm-------29.55-- 47.8----
2024-03-02 04:36 pm-------29.55-- 47.8----
2024-03-02 04:30 pm-------29.55-- 47.8----
2024-03-02 04:24 pm-------29.54-- 47.7----
2024-03-02 04:18 pm-------29.54-- 47.7----
2024-03-02 04:12 pm-------29.54-- 47.7----
2024-03-02 04:06 pm-------29.54-- 47.7----
2024-03-02 04:00 pm-------29.54+0.02- 47.8----
2024-03-02 03:54 pm-------29.54-- 47.8----
2024-03-02 03:48 pm-------29.54-- 47.8----
2024-03-02 03:42 pm-------29.54-- 47.8----
2024-03-02 03:36 pm-------29.54-- 47.8----
2024-03-02 03:30 pm-------29.54-- 47.8----
2024-03-02 03:24 pm-------29.54-- 47.8----
2024-03-02 03:18 pm-------29.54-- 47.8----
2024-03-02 03:12 pm-------29.54-- 47.8----
2024-03-02 03:00 pm-------29.54+0.04- 48.0----
2024-03-02 02:54 pm-------29.55-- 48.0----
2024-03-02 02:48 pm-------29.55-- 48.0----
2024-03-02 02:42 pm-------29.55-- 48.0----
2024-03-02 02:36 pm-------29.55-- 48.2----
2024-03-02 02:30 pm-------29.55-- 48.2----
2024-03-02 02:24 pm-------29.55-- 48.2----
2024-03-02 02:18 pm-------29.55-- 48.2----
2024-03-02 02:12 pm-------29.55-- 48.4----
2024-03-02 02:06 pm-------29.55-- 48.4----
2024-03-02 02:00 pm-------29.54+0.06- 48.4----
2024-03-02 01:54 pm-------29.53-- 48.4----
2024-03-02 01:48 pm-------29.52-- 48.4----
2024-03-02 01:42 pm-------29.52-- 48.4----
2024-03-02 01:36 pm-------29.52-- 48.4----
2024-03-02 01:30 pm-------29.52-------
2024-03-02 01:24 pm-------29.52-------
2024-03-02 01:18 pm-------29.52-- 48.6----
2024-03-02 01:12 pm-------29.52-- 48.6----
2024-03-02 01:06 pm-------29.52-- 48.6----
2024-03-02 01:00 pm-------29.52+0.05- 48.6----
2024-03-02 12:54 pm-------29.52-- 48.6----
2024-03-02 12:48 pm-------29.52-- 48.6----
2024-03-02 12:42 pm-------29.52-- 48.6----
2024-03-02 12:36 pm-------29.51-- 48.6----
2024-03-02 12:30 pm-------29.52-- 48.7----
2024-03-02 12:24 pm-------29.51-- 48.7----
2024-03-02 12:18 pm-------29.51-- 48.7----
2024-03-02 12:12 pm-------29.51-- 48.7----
2024-03-02 12:06 pm-------29.51-- 48.7----
2024-03-02 12:00 pm-------29.50+0.06- 48.7----
2024-03-02 11:54 am-------29.50-- 48.7----